Location: Makakahi
(40.6833°S, 175.6000°E)
Time: 19:38:39
(UTC+00:00)

FENGYUN 1C DEB - Pass Details

Date: 10 February 2026
Orbit: 839 x 906 km, 98.9° (Epoch: 9 March)

Event Time Altitude Azimuth Distance (km) Brightness Sun altitude
Rises 09:15:43 0° 168° (SSE) 3,440 ? -18.7°
Reaches altitude 10° 09:18:05 10° 168° (SSE) 2,503 ? -19.1°
Maximum altitude 09:23:39 81° 254° (WSW) 880 ? -19.9°
Drops below altitude 10° 09:29:14 10° 341° (NNW) 2,510 ? -20.7°
Enters shadow 09:30:15 - 341° (NNW) 2,909 ? -20.8°
